Change the Weather History Date:

Tuesday, October 11, 2011

  Actual Average Record
Temperature  
Mean Temperature 63 °F -  
Max Temperature 69 °F 59 °F 71 °F (2001)
Min Temperature 57 °F 41 °F 35 °F (1996)
Degree Days  
Heating Degree Days 2    
Growing Degree Days 13 (Base 50)    
Moisture  
Dew Point 50 °F    
Average Humidity 66    
Maximum Humidity 77    
Minimum Humidity 38    
Precipitation  
Precipitation 0.00 in - - ()
Sea Level Pressure  
Sea Level Pressure 30.21 in    
Wind  
Wind Speed 6 mph (East)    
Max Wind Speed 9 mph    
Max Gust Speed -    
Visibility 10 miles    
Events      
Averages and records for this station are not official NWS values.
T = Trace of Precipitation, MM = Missing Value Source: NWS Daily Summary

Daily Weather History Graph

Daily Weather History Graph

Search for Another Location

Airport or City:

Trip Planner

Search our weather history database for the weather conditions in past years. The results will help you decide how hot, cold, wet, or windy it might be!

Date:

Astronomy

Oct. 11, 2011 Rise Set
Actual Time 6:59 AM EDT 6:18 PM EDT
Civil Twilight 6:31 AM EDT 6:46 PM EDT
Nautical Twilight 5:59 AM EDT 7:18 PM EDT
Astronomical Twilight 5:27 AM EDT 7:50 PM EDT
Moon 5:48 PM EDT (10/11) 6:35 AM EDT (10/11)
Length of Visible Light 12h 14m
Length of Day
11h 18m
Full, 100% of the Moon is Illuminated
Oct 11
Full
Oct 11
Full
Oct 19
Last Quarter
Oct 26
New
Nov 2
First Quarter

Hourly Weather History & Observations

Time (EDT) Temp. Dew Point Humidity Pressure Visibility Wind Dir Wind Speed Gust Speed Precip Events Conditions
12:15 AM 60.8 °F 51.8 °F 72% 30.19 in 10.0 mi North 6.9 mph - N/A   Clear
12:35 AM 60.8 °F 51.8 °F 72% 30.18 in 10.0 mi NNW 4.6 mph - N/A   Clear
12:55 AM 59.0 °F 51.8 °F 77% 30.18 in 10.0 mi North 8.1 mph - N/A   Clear
1:35 AM 62.6 °F 53.6 °F 72% 30.19 in 10.0 mi NNE 4.6 mph - N/A   Clear
1:55 AM 60.8 °F 53.6 °F 77% 30.19 in 10.0 mi North 4.6 mph - N/A   Clear
2:15 AM 62.6 °F 55.4 °F 77% 30.19 in 10.0 mi NNE 6.9 mph - N/A   Clear
2:35 AM 62.6 °F 55.4 °F 77% 30.19 in 10.0 mi NNE 5.8 mph - N/A   Clear
2:55 AM 62.6 °F 55.4 °F 77% 30.19 in 10.0 mi NNE 6.9 mph - N/A   Clear
3:15 AM 62.6 °F 55.4 °F 77% 30.19 in 10.0 mi NE 9.2 mph - N/A   Clear
3:35 AM 64.4 °F 55.4 °F 73% 30.19 in 10.0 mi NE 8.1 mph - N/A   Clear
3:55 AM 62.6 °F 53.6 °F 72% 30.19 in 10.0 mi NE 6.9 mph - N/A   Clear
4:35 AM 62.6 °F 53.6 °F 72% 30.20 in 10.0 mi NE 5.8 mph - N/A   Clear
4:55 AM 62.6 °F 51.8 °F 68% 30.21 in 10.0 mi NE 5.8 mph - N/A   Clear
5:15 AM 62.6 °F 51.8 °F 68% 30.22 in 10.0 mi NE 4.6 mph - N/A   Clear
5:35 AM 60.8 °F 51.8 °F 72% 30.22 in 10.0 mi NE 6.9 mph - N/A   Clear
5:45 AM 60.8 °F 51.8 °F 72% 30.22 in 10.0 mi ENE 5.8 mph - N/A   Clear
6:45 AM 60.8 °F 51.8 °F 72% 30.23 in 10.0 mi East 4.6 mph - N/A   Clear
7:45 AM 59.0 °F 51.8 °F 77% 30.25 in 10.0 mi East 4.6 mph - N/A   Clear
9:45 AM 62.6 °F 44.6 °F 52% 30.26 in 10.0 mi ENE 5.8 mph - N/A   Clear
10:45 AM 64.4 °F 41.0 °F 42% 30.25 in 10.0 mi East 5.8 mph - N/A   Clear
11:45 AM 66.2 °F 42.8 °F 43% 30.24 in 10.0 mi East 4.6 mph - N/A   Clear
12:45 PM 68.0 °F 42.8 °F 40% 30.22 in 10.0 mi SE 4.6 mph - N/A   Clear
1:45 PM 69.8 °F 42.8 °F 38% 30.21 in 10.0 mi SE 4.6 mph - N/A   Clear
2:45 PM 69.8 °F 44.6 °F 40% 30.20 in 10.0 mi East 5.8 mph - N/A   Clear
4:45 PM 69.8 °F 44.6 °F 40% 30.20 in 10.0 mi SSE 8.1 mph - N/A   Clear
5:45 PM 62.6 °F 48.2 °F 59% 30.20 in 10.0 mi South 4.6 mph - N/A   Clear
6:45 PM 59.0 °F 48.2 °F 67% 30.20 in 10.0 mi South 5.8 mph - N/A   Clear
7:45 PM 59.0 °F 48.2 °F 67% 30.20 in 10.0 mi SSE 5.8 mph - N/A   Clear
9:15 PM 59.0 °F 48.2 °F 67% 30.22 in 10.0 mi SE 4.6 mph - N/A   Clear
9:35 PM 59.0 °F 46.4 °F 63% 30.22 in 10.0 mi ESE 3.5 mph - N/A   Clear
9:55 PM 57.2 °F 46.4 °F 67% 30.22 in 10.0 mi ESE 3.5 mph - N/A   Clear
10:15 PM 57.2 °F 48.2 °F 72% 30.23 in 10.0 mi SE 3.5 mph - N/A   Clear
10:35 PM 57.2 °F 48.2 °F 72% 30.23 in 10.0 mi ESE 3.5 mph - N/A   Clear
10:55 PM 57.2 °F 48.2 °F 72% 30.23 in 10.0 mi ESE 3.5 mph - N/A   Clear
11:15 PM 57.2 °F 48.2 °F 72% 30.23 in 10.0 mi ESE 3.5 mph - N/A   Clear
11:35 PM 57.2 °F 48.2 °F 72% 30.23 in 10.0 mi Calm Calm - N/A   Clear
11:55 PM 57.2 °F 48.2 °F 72% 30.23 in 10.0 mi East 4.6 mph - N/A   Mostly Cloudy